# Tabular Observed and Forecast Hydrograph Information
#
# Location: Mojave River - Victorville (MVVC1)
#
# File Generation Time: 09/06/2026 at 06:58 AM PDT
# Data Interval: 1 Hour
#
# Most Recent Date & Time of Maximum Observed: 09/06/2026 at 03:00 AM PDT
# Maximum Observed Stage: 7.02 Feet
# Maximum Observed Flow: 3 cfs
#
# Earliest Date & Time of Maximum Forecast: 09/06/2026 at 05:00 PM PDT
# Maximum Forecast Stage: 7.17 Feet
# Maximum Forecast Flow: 5 cfs
#
# OBSERVED
#
# Date & Time (Local) Stage (Feet) Flow (cfs) Trend Observed Status
# ---------------------------------------------------------------------------------
09/01/2026 06 AM PDT 7.00 3 Normal
09/01/2026 07 AM PDT 7.00 3 0 Normal
09/01/2026 08 AM PDT 7.01 3 + Normal
09/01/2026 09 AM PDT 7.02 3 + Normal
09/01/2026 10 AM PDT 6.99 3 - Normal
09/01/2026 11 AM PDT 6.98 3 - Normal
09/01/2026 12 PM PDT 6.98 3 0 Normal
09/01/2026 01 PM PDT 6.98 3 0 Normal
09/01/2026 02 PM PDT 6.98 3 0 Normal
09/01/2026 03 PM PDT 6.98 3 0 Normal
09/01/2026 04 PM PDT 6.98 3 0 Normal
09/01/2026 05 PM PDT 6.99 3 + Normal
09/01/2026 06 PM PDT 6.98 3 - Normal
09/01/2026 07 PM PDT 6.99 3 + Normal
09/01/2026 08 PM PDT 6.98 3 - Normal
09/01/2026 09 PM PDT 6.99 3 + Normal
09/01/2026 10 PM PDT 6.99 3 0 Normal
09/01/2026 11 PM PDT 7.00 3 + Normal
09/02/2026 12 AM PDT 7.00 3 0 Normal
09/02/2026 01 AM PDT 7.00 3 0 Normal
09/02/2026 02 AM PDT 6.98 3 - Normal
09/02/2026 03 AM PDT 6.98 3 0 Normal
09/02/2026 04 AM PDT 6.99 3 + Normal
09/02/2026 05 AM PDT 7.00 3 + Normal
09/02/2026 06 AM PDT 6.99 3 - Normal
09/02/2026 07 AM PDT 6.98 3 - Normal
09/02/2026 08 AM PDT 6.99 3 + Normal
09/02/2026 09 AM PDT 7.00 3 + Normal
09/02/2026 10 AM PDT 6.99 3 - Normal
09/02/2026 11 AM PDT 6.98 3 - Normal
09/02/2026 12 PM PDT 6.98 3 0 Normal
09/02/2026 01 PM PDT 6.98 3 0 Normal
09/02/2026 02 PM PDT 6.98 3 0 Normal
09/02/2026 03 PM PDT 6.98 3 0 Normal
09/02/2026 04 PM PDT 6.97 3 - Normal
09/02/2026 05 PM PDT 6.96 3 - Normal
09/02/2026 06 PM PDT 6.97 3 + Normal
09/02/2026 07 PM PDT 6.97 3 0 Normal
09/02/2026 08 PM PDT 6.97 3 0 Normal
09/02/2026 09 PM PDT 6.98 3 + Normal
09/02/2026 10 PM PDT 6.98 3 0 Normal
09/02/2026 11 PM PDT 6.99 3 + Normal
09/03/2026 12 AM PDT 6.99 3 0 Normal
09/03/2026 01 AM PDT 6.98 3 - Normal
09/03/2026 02 AM PDT 6.99 3 + Normal
09/03/2026 03 AM PDT 6.98 3 - Normal
09/03/2026 04 AM PDT 6.98 3 0 Normal
09/03/2026 05 AM PDT 7.01 3 + Normal
09/03/2026 06 AM PDT 7.01 3 0 Normal
09/03/2026 07 AM PDT 7.01 3 0 Normal
09/03/2026 08 AM PDT 7.01 3 0 Normal
09/03/2026 09 AM PDT 7.02 3 + Normal
09/03/2026 10 AM PDT 6.99 3 - Normal
09/03/2026 11 AM PDT 7.00 3 + Normal
09/03/2026 12 PM PDT 7.00 3 0 Normal
09/03/2026 01 PM PDT 6.99 3 - Normal
09/03/2026 02 PM PDT 7.00 3 + Normal
09/03/2026 03 PM PDT 6.99 3 - Normal
09/03/2026 04 PM PDT 6.99 3 0 Normal
09/03/2026 05 PM PDT 6.99 3 0 Normal
09/03/2026 06 PM PDT 6.99 3 0 Normal
09/03/2026 07 PM PDT 7.00 3 + Normal
09/03/2026 08 PM PDT 7.00 3 0 Normal
09/03/2026 09 PM PDT 7.00 3 0 Normal
09/03/2026 10 PM PDT 6.99 3 - Normal
09/03/2026 11 PM PDT 7.00 3 + Normal
09/04/2026 12 AM PDT 7.00 3 0 Normal
09/04/2026 01 AM PDT 7.00 3 0 Normal
09/04/2026 02 AM PDT 7.00 3 0 Normal
09/04/2026 03 AM PDT 7.01 3 + Normal
09/04/2026 04 AM PDT 7.00 3 - Normal
09/04/2026 05 AM PDT 7.01 3 + Normal
09/04/2026 06 AM PDT 7.00 3 - Normal
09/04/2026 07 AM PDT 7.00 3 0 Normal
09/04/2026 08 AM PDT 7.01 3 + Normal
09/04/2026 09 AM PDT 7.01 3 0 Normal
09/04/2026 10 AM PDT 7.00 3 - Normal
09/04/2026 11 AM PDT 7.01 3 + Normal
09/04/2026 12 PM PDT 7.00 3 - Normal
09/04/2026 01 PM PDT 7.00 3 0 Normal
09/04/2026 02 PM PDT 7.00 3 0 Normal
09/04/2026 03 PM PDT 7.00 3 0 Normal
09/04/2026 04 PM PDT 6.99 3 - Normal
09/04/2026 05 PM PDT 6.99 3 0 Normal
09/04/2026 06 PM PDT 6.99 3 0 Normal
09/04/2026 07 PM PDT 6.99 3 0 Normal
09/04/2026 08 PM PDT 7.00 3 + Normal
09/04/2026 09 PM PDT 7.00 3 0 Normal
09/04/2026 10 PM PDT 7.01 3 + Normal
09/04/2026 11 PM PDT 7.01 3 0 Normal
09/05/2026 12 AM PDT 7.01 3 0 Normal
09/05/2026 01 AM PDT 7.00 3 - Normal
09/05/2026 02 AM PDT 7.01 3 + Normal
09/05/2026 03 AM PDT 7.01 3 0 Normal
09/05/2026 04 AM PDT 7.01 3 0 Normal
09/05/2026 05 AM PDT 7.00 3 - Normal
09/05/2026 06 AM PDT 7.00 3 0 Normal
09/05/2026 07 AM PDT 7.00 3 0 Normal
09/05/2026 08 AM PDT 7.00 3 0 Normal
09/05/2026 09 AM PDT 7.01 3 + Normal
09/05/2026 10 AM PDT 6.99 3 - Normal
09/05/2026 11 AM PDT 6.99 3 0 Normal
09/05/2026 12 PM PDT 6.98 3 - Normal
09/05/2026 01 PM PDT 6.98 3 0 Normal
09/05/2026 02 PM PDT 7.01 3 + Normal
09/05/2026 03 PM PDT 7.00 3 - Normal
09/05/2026 04 PM PDT 7.00 3 0 Normal
09/05/2026 05 PM PDT 7.00 3 0 Normal
09/05/2026 06 PM PDT 7.00 3 0 Normal
09/05/2026 07 PM PDT 7.00 3 0 Normal
09/05/2026 08 PM PDT 7.01 3 + Normal
09/05/2026 09 PM PDT 7.01 3 0 Normal
09/05/2026 10 PM PDT 7.01 3 0 Normal
09/05/2026 11 PM PDT 7.02 3 + Normal
09/06/2026 12 AM PDT 7.01 3 - Normal
09/06/2026 01 AM PDT 7.01 3 0 Normal
09/06/2026 02 AM PDT 7.01 3 0 Normal
09/06/2026 03 AM PDT 7.02 3 + Normal
09/06/2026 04 AM PDT 7.01 3 - Normal
09/06/2026 05 AM PDT 6.99 3 - Normal
09/06/2026 06 AM PDT 7.00 3 + Normal
#
# FORECAST
#
# Date & Time (Local) Stage (Feet) Flow (cfs) Trend Forecast Status
# ---------------------------------------------------------------------------------
09/06/2026 07 AM PDT 7.01 3 Normal
09/06/2026 08 AM PDT 7.02 3 + Normal
09/06/2026 09 AM PDT 7.03 3 + Normal
09/06/2026 10 AM PDT 7.04 4 + Normal
09/06/2026 11 AM PDT 7.05 4 + Normal
09/06/2026 12 PM PDT 7.07 4 + Normal
09/06/2026 01 PM PDT 7.09 4 + Normal
09/06/2026 02 PM PDT 7.11 4 + Normal
09/06/2026 03 PM PDT 7.13 4 + Normal
09/06/2026 04 PM PDT 7.15 4 + Normal
09/06/2026 05 PM PDT 7.17 5 + Normal
09/06/2026 06 PM PDT 7.17 5 0 Normal
09/06/2026 07 PM PDT 7.17 5 0 Normal
09/06/2026 08 PM PDT 7.17 5 0 Normal
09/06/2026 09 PM PDT 7.17 5 0 Normal
09/06/2026 10 PM PDT 7.17 5 0 Normal
09/06/2026 11 PM PDT 7.17 5 0 Normal
09/07/2026 12 AM PDT 7.15 4 - Normal
09/07/2026 01 AM PDT 7.13 4 - Normal
09/07/2026 02 AM PDT 7.12 4 - Normal
09/07/2026 03 AM PDT 7.10 4 - Normal
09/07/2026 04 AM PDT 7.08 4 - Normal
09/07/2026 05 AM PDT 7.06 4 - Normal
09/07/2026 06 AM PDT 7.05 4 - Normal
09/07/2026 07 AM PDT 7.05 4 0 Normal
09/07/2026 08 AM PDT 7.04 4 - Normal
09/07/2026 09 AM PDT 7.03 3 - Normal
09/07/2026 10 AM PDT 7.02 3 - Normal
09/07/2026 11 AM PDT 7.01 3 - Normal
09/07/2026 12 PM PDT 7.01 3 0 Normal
09/07/2026 01 PM PDT 7.01 3 0 Normal
09/07/2026 02 PM PDT 7.01 3 0 Normal
09/07/2026 03 PM PDT 7.00 3 - Normal
09/07/2026 04 PM PDT 7.00 3 0 Normal
09/07/2026 05 PM PDT 7.00 3 0 Normal
09/07/2026 06 PM PDT 7.00 3 0 Normal
09/07/2026 07 PM PDT 7.00 3 0 Normal
09/07/2026 08 PM PDT 7.00 3 0 Normal
09/07/2026 09 PM PDT 7.00 3 0 Normal
09/07/2026 10 PM PDT 7.00 3 0 Normal
09/07/2026 11 PM PDT 7.00 3 0 Normal
09/08/2026 12 AM PDT 7.00 3 0 Normal
09/08/2026 01 AM PDT 7.00 3 0 Normal
09/08/2026 02 AM PDT 7.00 3 0 Normal
09/08/2026 03 AM PDT 6.99 3 - Normal
09/08/2026 04 AM PDT 6.99 3 0 Normal
09/08/2026 05 AM PDT 6.99 3 0 Normal
09/08/2026 06 AM PDT 6.99 3 0 Normal
09/08/2026 07 AM PDT 6.99 3 0 Normal
09/08/2026 08 AM PDT 6.99 3 0 Normal
09/08/2026 09 AM PDT 6.99 3 0 Normal
09/08/2026 10 AM PDT 6.99 3 0 Normal
09/08/2026 11 AM PDT 6.99 3 0 Normal
09/08/2026 12 PM PDT 6.99 3 0 Normal
09/08/2026 01 PM PDT 6.99 3 0 Normal
09/08/2026 02 PM PDT 6.99 3 0 Normal
09/08/2026 03 PM PDT 6.99 3 0 Normal
09/08/2026 04 PM PDT 6.99 3 0 Normal
09/08/2026 05 PM PDT 6.99 3 0 Normal
09/08/2026 06 PM PDT 6.99 3 0 Normal
09/08/2026 07 PM PDT 6.99 3 0 Normal
09/08/2026 08 PM PDT 6.99 3 0 Normal
09/08/2026 09 PM PDT 6.99 3 0 Normal
09/08/2026 10 PM PDT 6.99 3 0 Normal
09/08/2026 11 PM PDT 6.99 3 0 Normal
09/09/2026 12 AM PDT 6.99 3 0 Normal
09/09/2026 01 AM PDT 6.99 3 0 Normal
09/09/2026 02 AM PDT 6.99 3 0 Normal
09/09/2026 03 AM PDT 6.99 3 0 Normal
09/09/2026 04 AM PDT 6.99 3 0 Normal
09/09/2026 05 AM PDT 6.99 3 0 Normal
09/09/2026 06 AM PDT 6.99 3 0 Normal
09/09/2026 07 AM PDT 6.99 3 0 Normal
09/09/2026 08 AM PDT 6.99 3 0 Normal
09/09/2026 09 AM PDT 6.99 3 0 Normal
09/09/2026 10 AM PDT 6.99 3 0 Normal
09/09/2026 11 AM PDT 6.99 3 0 Normal
09/09/2026 12 PM PDT 6.99 3 0 Normal
09/09/2026 01 PM PDT 6.99 3 0 Normal
09/09/2026 02 PM PDT 6.99 3 0 Normal
09/09/2026 03 PM PDT 6.99 3 0 Normal
09/09/2026 04 PM PDT 6.99 3 0 Normal
09/09/2026 05 PM PDT 6.99 3 0 Normal
09/09/2026 06 PM PDT 6.99 3 0 Normal
09/09/2026 07 PM PDT 6.99 3 0 Normal
09/09/2026 08 PM PDT 6.99 3 0 Normal
09/09/2026 09 PM PDT 6.99 3 0 Normal
09/09/2026 10 PM PDT 6.99 3 0 Normal
09/09/2026 11 PM PDT 6.99 3 0 Normal
09/10/2026 12 AM PDT 6.99 3 0 Normal
09/10/2026 01 AM PDT 6.99 3 0 Normal
09/10/2026 02 AM PDT 6.99 3 0 Normal
09/10/2026 03 AM PDT 6.99 3 0 Normal
09/10/2026 04 AM PDT 6.99 3 0 Normal
09/10/2026 05 AM PDT 6.99 3 0 Normal
09/10/2026 06 AM PDT 6.99 3 0 Normal
09/10/2026 07 AM PDT 6.99 3 0 Normal
09/10/2026 08 AM PDT 6.99 3 0 Normal
09/10/2026 09 AM PDT 6.99 3 0 Normal
09/10/2026 10 AM PDT 6.99 3 0 Normal
09/10/2026 11 AM PDT 6.99 3 0 Normal
09/10/2026 12 PM PDT 6.99 3 0 Normal
09/10/2026 01 PM PDT 6.99 3 0 Normal
09/10/2026 02 PM PDT 6.99 3 0 Normal
09/10/2026 03 PM PDT 6.99 3 0 Normal
09/10/2026 04 PM PDT 6.99 3 0 Normal
09/10/2026 05 PM PDT 6.99 3 0 Normal
09/10/2026 06 PM PDT 6.99 3 0 Normal
09/10/2026 07 PM PDT 6.99 3 0 Normal
09/10/2026 08 PM PDT 6.99 3 0 Normal
09/10/2026 09 PM PDT 6.99 3 0 Normal
09/10/2026 10 PM PDT 6.99 3 0 Normal
09/10/2026 11 PM PDT 6.99 3 0 Normal
09/11/2026 12 AM PDT 6.99 3 0 Normal
09/11/2026 01 AM PDT 6.99 3 0 Normal
09/11/2026 02 AM PDT 6.99 3 0 Normal
09/11/2026 03 AM PDT 6.99 3 0 Normal
09/11/2026 04 AM PDT 6.99 3 0 Normal
09/11/2026 05 AM PDT 6.99 3 0 Normal
#
# NOTE 1: Stages are rounded to the nearest hundredth (.01) of a foot.
# NOTE 2: Flows are rounded to the nearest (1) cfs.
# NOTE 3: Trends are determined using hourly change in unrounded stage and flow.
# NOTE 4: Maximum Values are determined using unrounded stage and flow.
|